This is the latest recevied weather packets stored in our database for station/object WB4ZUT. If no packets are shown the sender has not sent any weather packets the latest 10 day(s).
| Time | Temp. | Humidity | Pressure | Rain* | Wind** | Luminosity | Snow |
|---|---|---|---|---|---|---|---|
| 1777930160 | 26.11° C | 46% | 1007.7 hPa | 0 mm | - | 168 W/m² | - |
| 1777929855 | 26.11° C | 45% | 1007.4 hPa | 0 mm | - | 172 W/m² | - |
| 1777929554 | 26.11° C | 44% | 1007.7 hPa | 0 mm | - | 178 W/m² | - |
| 1777929250 | 26.11° C | 45% | 1007.6 hPa | 0 mm | - | 188 W/m² | - |
| 1777928947 | 26.11° C | 44% | 1007.6 hPa | 0 mm | - | 199 W/m² | - |
| 1777928644 | 26.11° C | 44% | 1007.7 hPa | 0 mm | - | 235 W/m² | - |
| 1777928341 | 26.11° C | 43% | 1007.5 hPa | 0 mm | - | 245 W/m² | - |
| 1777928039 | 26.11° C | 44% | 1007.3 hPa | 0 mm | - | 249 W/m² | - |
| 1777927736 | 26.11° C | 45% | 1007.5 hPa | 0 mm | - | 256 W/m² | - |
| 1777927435 | 26.67° C | 45% | 1007.7 hPa | 0 mm | - | 278 W/m² | - |
| 1777927134 | 26.11° C | 44% | 1007.8 hPa | 0 mm | - | 367 W/m² | - |
| 1777926830 | 26.11° C | 44% | 1007.8 hPa | 0 mm | - | 324 W/m² | - |
| 1777926526 | 26.67° C | 45% | 1007.6 hPa | 0 mm | - | 356 W/m² | - |
| 1777926223 | 26.11° C | 43% | 1007.9 hPa | 0 mm | - | 360 W/m² | - |
| 1777925920 | 26.11° C | 44% | 1007.7 hPa | 0 mm | - | 329 W/m² | - |
| 1777925618 | 26.67° C | 42% | 1007.8 hPa | 0 mm | - | 289 W/m² | - |
| 1777925315 | 26.67° C | 44% | 1007.5 hPa | 0 mm | - | 391 W/m² | - |
| 1777925011 | 26.67° C | 44% | 1007.7 hPa | 0 mm | - | 454 W/m² | - |
| 1777924708 | 26.67° C | 43% | 1007.8 hPa | 0 mm | - | 433 W/m² | - |
| 1777924403 | 26.67° C | 44% | 1007.5 hPa | 0 mm | - | 421 W/m² | - |
| 1777924101 | 26.67° C | 43% | 1007.6 hPa | 0 mm | - | 444 W/m² | - |
| 1777923796 | 26.67° C | 44% | 1007.6 hPa | 0 mm | - | 404 W/m² | - |
| 1777923492 | 26.67° C | 44% | 1007.5 hPa | 0 mm | - | 453 W/m² | - |
| 1777923190 | 26.67° C | 48% | 1007.5 hPa | 0 mm | - | 541 W/m² | - |
| 1777922889 | 26.67° C | 47% | 1007.5 hPa | 0 mm | - | 500 W/m² | - |
* Rain latest hour (hover to see other rain measurements)
** Current wind speed in m/s (hover to see current wind gust speed)